Martín Lombardi

Recruteur en chef - Gimnasia y Tiro
20 Févr 2028
Dimanche
Processus

Personnalité

Adaptabilité (7) Ambition (2) Controverse (15) Loyauté (6) Pression (8) Professionnalisme (2) Sportivité (5) Tempérament (15)

Profil

Style d'entraînement Démocratique
Diplôme National A
Détermination 3
Gestion des joueurs 2
Motivation 5
Discipline 7
Satisfaction professionnelle
100%
Fatigue
0%
Rôle Recruteur en chef
Salaire 19.2K p/s
Contrat 14.03.2029

Performance

Comportement Bon
Efficacité de l'entraînement
15%
Développement des joueurs
15%
Prévention des blessures
20%
Mise en place tactique
5%

Événements récents

A participé à une réunion de recrutement 14j
A participé à une réunion de recrutement 21j
En formation continue 28j
A participé à une réunion de recrutement 28j
En formation continue 28j
En formation continue 28j
En formation continue 28j
En formation continue 35j

Suivi en cours

178
Joueur Club Statut Capacité Confiance Observé Dernière observation Dernier vote
Manuel Duarte Barracas Central Actif 130 / 126 40% 2 29.11.2026 -
Rafael Sánchez Aragua Actif 102 / 92 40% 1 29.11.2026 -
Diego Duarte River Plate Actif 81 / 69 40% 1 28.11.2026 -
Piero Quispe Universitario Actif 124 / 106 40% 1 27.11.2026 -
Samuel Lucero Defensa y Justicia Actif 95 / 122 40% 2 25.11.2026 -
Abel Bustos Racing Actif 109 / 126 40% 2 25.11.2026 -
Juan Francisco Rossel Universidad Catolica Actif 100 / 104 40% 1 25.11.2026 -
Siro Rosané Estudiantes Actif 108 / 125 40% 2 23.11.2026 -
Agustín Pérez Deportivo Tachira Actif 97 / 99 40% 1 23.11.2026 -
Juan David Sánchez Deportivo Tachira Actif 112 / 95 40% 1 22.11.2026 -
Hércules Fluminense Actif 144 / 119 40% 1 22.11.2026 -
Francisco Borda Central Norte Actif 103 / 102 40% 1 21.11.2026 -
Ezequiel Neira Carabobo Actif 103 / 124 40% 1 20.11.2026 -
Federico Navarro Rosario Central Actif 137 / 124 40% 1 19.11.2026 -
Randall Rodríguez River Plate Actif 108 / 119 40% 1 18.11.2026 -
Nicolás Retamar Ferro Carril Oeste Actif 100 / 119 40% 1 15.11.2026 -
Javier Martínez Almirante Brown Actif 110 / 97 40% 1 15.11.2026 -
Federico Bisanz Atlanta Actif 106 / 111 40% 1 14.11.2026 -
Matías Montero Madryn Actif 102 / 93 40% 1 14.11.2026 -
Franco Rivasseau Patronato Actif 95 / 103 40% 1 14.11.2026 -
Jorge Espejo Universidad de Concepcion Actif 104 / 121 40% 3 13.11.2026 -
Gonzalo Flores Almirante Brown Actif 101 / 115 40% 2 13.11.2026 -
Tomás O'Connor Gimnasia y Esgrima Actif 127 / 135 40% 1 13.11.2026 -
Juan Luis Alfaro Banfield Actif 98 / 102 40% 1 11.11.2026 -
Fernando Duré Estudiantes Actif 116 / 118 40% 3 10.11.2026 -
Agustín Dattola Almirante Brown Actif 133 / 125 40% 1 10.11.2026 -
Lucas Ruiz Ferro Carril Oeste Actif 120 / 100 40% 1 09.11.2026 -
Elías Villar Nacional Actif 74 / 98 40% 1 08.11.2026 -
Lautaro Petruchi Gimnasia y Esgrima Actif 115 / 120 40% 1 08.11.2026 -
Facundo Ardiles Estudiantes Actif 96 / 115 40% 1 08.11.2026 -
Nicolás Heiz Maipú Actif 107 / 94 40% 1 08.11.2026 -
Nahuel Barrios San Lorenzo Actif 136 / 127 40% 1 07.11.2026 -
Maren Haile-Selassie Chicago Fire Actif 131 / 113 40% 1 07.11.2026 -
Gianfranco Chávez Alianza Lima Actif 100 / 108 40% 1 07.11.2026 -
Duván Mósquera Aguilas Doradas Actif 90 / 103 40% 2 05.11.2026 -
Kleyder Barreto Mineros de Guayana Actif 102 / 104 40% 1 05.11.2026 -
Yvo Calleros Madryn Actif 123 / 97 40% 1 04.11.2026 -
Santiago Gutiérrez Alvarado Actif 115 / 117 40% 1 04.11.2026 -
Rubén Arellano Santa Cruz Actif 76 / 90 40% 1 03.11.2026 -
Santiago Rodríguez Gimnasia y Esgrima Actif 104 / 127 40% 3 02.11.2026 -
Diego Méndez Tacuarembo Actif 99 / 82 40% 1 01.11.2026 -
Gaspar Duarte Rosario Central Actif 131 / 116 40% 1 01.11.2026 -
Brian Calderara Chacarita Juniors Actif 130 / 117 40% 2 31.10.2026 -
Jero Minnesota United FC Actif 102 / 107 40% 1 31.10.2026 -
Gianluca Pugliese Güemes Actif 95 / 107 40% 1 31.10.2026 -
Juan Manuel Jorge Defensor Sporting Actif 100 / 111 40% 3 30.10.2026 -
Facundo Heredia Patronato Actif 108 / 106 40% 2 29.10.2026 -
Marcos Enrique Tristán Suárez Actif 94 / 97 40% 2 29.10.2026 -
Juan José Cardozo Argentinos Juniors Actif 98 / 122 40% 1 28.10.2026 -
Germán Guiffrey Gimnasia y Esgrima Actif 132 / 111 40% 1 28.10.2026 -
Mauricio Márquez Caracas Actif 117 / 90 40% 4 27.10.2026 -
Luis Olivera Defensores Unidos Actif 111 / 106 40% 1 27.10.2026 -
Philippe Ndinga Philadelphia Union Actif 106 / 136 40% 2 26.10.2026 -
Nicolás Laméndola Atlético Tucumán Actif 123 / 120 40% 1 25.10.2026 -
Gastón Benedetti Estudiantes Actif 114 / 136 40% 2 24.10.2026 -
Vicente Pizarro Rosario Central Actif 119 / 128 40% 1 24.10.2026 -
Agustín Lastra Estudiantes Actif 109 / 109 40% 1 23.10.2026 -
Johan Madrid Sporting Cristal Actif 108 / 110 40% 1 22.10.2026 -
Matías Kabalín Ferro Carril Oeste Actif 107 / 117 40% 1 22.10.2026 -
Emmanuel Sabbi Vancouver Whitecaps Actif 131 / 107 40% 1 21.10.2026 -
Franco Díaz Temperley Actif 108 / 125 40% 1 20.10.2026 -
Santiago Sala Güemes Actif 116 / 113 40% 1 17.10.2026 -
Thomas Ortega Quilmes Actif 122 / 110 40% 2 16.10.2026 -
Sergio Sulbarán Zamora Actif 85 / 95 40% 1 16.10.2026 -
Iván Chaves Patronato Actif 85 / 103 40% 1 15.10.2026 -
Matías Samaniego Talleres Actif 110 / 106 40% 1 13.10.2026 -
Agustín Solari 12 de Octubre Actif 92 / 96 40% 1 13.10.2026 -
Ramiro Hernandes Belgrano Actif 103 / 137 40% 1 12.10.2026 -
Walter Juárez Güemes Actif 126 / 117 40% 1 12.10.2026 -
Miguel Acosta Argentinos Juniors Actif 95 / 99 40% 1 11.10.2026 -
Federico Sena Estudiantes Actif 124 / 115 40% 1 09.10.2026 -
Valentín Serrano Arsenal Actif 102 / 102 40% 1 09.10.2026 -
Victor Moreno Llaneros Actif 102 / 95 40% 1 09.10.2026 -
Juan Fernando Alfaro Olimpia Actif 117 / 123 40% 2 05.10.2026 -
Martín Campos Ferro Carril Oeste Actif 120 / 129 40% 1 05.10.2026 -
Esteven Salguero Patriotas Actif 100 / 90 40% 1 04.10.2026 -
Tobías Leiva Estudiantes Actif 98 / 129 40% 1 04.10.2026 -
Moisés Gallo Zulia Actif 95 / 100 40% 1 03.10.2026 -
Lautaro Blanco Boca Juniors Actif 108 / 124 40% 1 01.10.2026 -
Luis Rojas Universidad de Concepcion Actif 113 / 103 40% 1 30.09.2026 -
Francisco Castillo Llaneros Actif 99 / 105 40% 1 28.09.2026 -
Facundo da Costa Cerro Largo Actif 95 / 101 40% 1 28.09.2026 -
Luciano Arriagada Huachipato Actif 108 / 100 40% 1 28.09.2026 -
Franco Vedoya Central Norte Actif 98 / 123 40% 1 27.09.2026 -
Armindo Sieb Los Angeles Football Club Actif 124 / 107 40% 1 27.09.2026 -
Isaac Boehmer Vancouver Whitecaps Actif 93 / 109 40% 2 26.09.2026 -
Héber García Portuguesa Actif 113 / 110 40% 1 26.09.2026 -
Nəriman Axundzadə Columbus Crew Actif 143 / 136 40% 1 25.09.2026 -
Francisco Salerno Defensores Unidos Actif 110 / 92 40% 1 25.09.2026 -
Zacarías López Iquique Actif 110 / 98 40% 1 24.09.2026 -
Joaquín Enrico San Telmo Actif 92 / 98 40% 1 23.09.2026 -
Iván Moreno Leon Actif 119 / 98 40% 2 22.09.2026 -
David Agudelo Depor Actif 96 / 105 40% 2 22.09.2026 -
Agustín Módica Gimnasia y Esgrima Actif 132 / 123 40% 1 22.09.2026 -
Lucas Verza Olimpia Actif 97 / 101 40% 1 22.09.2026 -
Enzo Acosta Estudiantes Actif 107 / 106 40% 1 21.09.2026 -
Juan Yangali San Telmo Actif 120 / 121 40% 1 21.09.2026 -
Erick Aguirre Monterrey Actif 149 / 116 40% 1 21.09.2026 -
Gino Santilli Banfield Actif 125 / 115 40% 1 19.09.2026 -
Axel Herrera Santiago Wanderers Actif 80 / 90 40% 1 18.09.2026 -
Edgar Zaldívar Atlas Actif 82 / 114 40% 1 18.09.2026 -
Elías Torres Racing Club Actif 102 / 118 40% 1 18.09.2026 -
Brayan Moreno Universidad de Chile Actif 125 / 103 40% 1 17.09.2026 -
Marcelo Miño Ferro Carril Oeste Actif 120 / 124 40% 1 17.09.2026 -
Jeferson Nolasco Cesar Vallejo Actif 100 / 84 40% 1 17.09.2026 -
Cristian Carbajal Alianza Lima Actif 121 / 110 40% 1 16.09.2026 -
Bastián Yáñez O'Higgins Actif 100 / 124 40% 1 15.09.2026 -
Emiliano Ancheta Nacional Actif 108 / 121 40% 2 13.09.2026 -
Fernando Álvarez Deportivo Cali Actif 128 / 110 40% 1 13.09.2026 -
Emiliano González Almagro Actif 100 / 116 40% 1 12.09.2026 -
Matías Tagliamonte Racing Club Actif 137 / 109 40% 1 11.09.2026 -
Santiago Godoy 12 de Octubre Actif 94 / 83 40% 1 11.09.2026 -
Kevin Pérez Junior Actif 101 / 120 40% 1 10.09.2026 -
Brayan Palmezano Deportivo Tachira Actif 83 / 107 40% 1 10.09.2026 -
Ezequiel Almirón Estudiantes Actif 94 / 106 40% 1 08.09.2026 -
Nahuel Soria Oriental Actif 84 / 100 40% 1 08.09.2026 -
Facundo Melillán Güemes Actif 95 / 118 40% 1 08.09.2026 -
Steven Pabón Trujillanos Actif 111 / 100 40% 1 08.09.2026 -
Andrés Sarmiento Atletico Nacional Actif 105 / 115 40% 1 06.09.2026 -
Neyder Moreno Atletico Nacional Actif 95 / 106 40% 1 06.09.2026 -
Sebastián Guzmán Deportes Tolima Actif 99 / 106 40% 1 05.09.2026 -
Franco González Penarol Actif 116 / 103 40% 1 05.09.2026 -
Miguel Núñez Toronto FC Actif 97 / 88 40% 1 05.09.2026 -
Sebastián Jaume Albion Actif 93 / 110 40% 1 05.09.2026 -
José Alvarado Leon Actif 126 / 105 40% 1 04.09.2026 -
Rodrigo Muníz Uruguay Montevideo Actif 93 / 99 40% 1 03.09.2026 -
Cristian Lima Uruguay Montevideo Actif 109 / 106 40% 1 02.09.2026 -
Rômulo Tigres Actif 109 / 129 40% 2 01.09.2026 -
Braian Vargas Rentistas Actif 101 / 97 40% 1 01.09.2026 -
Lucas Soto Colo-Colo Actif 115 / 113 40% 1 31.08.2026 -
Sebastián Urrea Deportivo Pereira Actif 84 / 98 40% 1 31.08.2026 -
Denis Olivera Danubio Actif 107 / 114 40% 1 31.08.2026 -
Dylan Lozano Aguilas Doradas Actif 120 / 109 40% 1 30.08.2026 -
Anthony Vilche Colon Actif 88 / 85 40% 1 30.08.2026 -
Sebastián Santos Leon Actif 103 / 103 40% 1 28.08.2026 -
Álvaro San Emeterio Tacuarembo Actif 83 / 102 40% 1 28.08.2026 -
Ariel Gamarra Cerro Porteno Actif 103 / 122 40% 1 25.08.2026 -
Víctor Dávila Club America Actif 138 / 122 40% 1 25.08.2026 -
Roameth Romaña Llaneros Actif 97 / 104 40% 1 25.08.2026 -
Juan Pablo Noce All Boys Actif 119 / 97 40% 1 25.08.2026 -
Orles Aragón Tigres Actif 92 / 91 40% 1 24.08.2026 -
Fabián Ángel Junior Actif 120 / 111 40% 1 24.08.2026 -
Aldahir Pérez Tijuana Actif 129 / 111 40% 1 23.08.2026 -
Rodrigo Cabrera River Plate Actif 79 / 105 40% 1 23.08.2026 -
Juan Camilo Mosquera Atletico Bucaramanga Actif 115 / 102 40% 1 22.08.2026 -
Lucas Machado Defensor Sporting Actif 112 / 89 40% 1 21.08.2026 -
Nicolás Rossi Juventud Actif 107 / 101 40% 1 21.08.2026 -
Ricardo Echeverría Santos Laguna Actif 137 / 124 40% 1 20.08.2026 -
Agustín Pereira Albion Actif 117 / 101 40% 1 19.08.2026 -
Diego Rossi Monterrey Actif 109 / 145 40% 2 18.08.2026 -
Jorge Murrugarra Universitario Actif 105 / 117 40% 1 18.08.2026 -
Bleiner Agrón Envigado Actif 89 / 95 40% 1 18.08.2026 -
Diego Núñez Colon Actif 109 / 95 40% 1 18.08.2026 -
José Juan Macías Pumas UNAM Actif 126 / 99 40% 1 17.08.2026 -
Ezequiel Busquets Montevideo City Torque Actif 101 / 105 40% 1 17.08.2026 -
Fernando Tapia Club America Actif 128 / 130 40% 1 16.08.2026 -
Andrés Macea Real Santander Actif 93 / 77 40% 1 15.08.2026 -
Hebert Vergara Liverpool Montevideo Actif 96 / 98 40% 1 14.08.2026 -
Kevin Chacón Barranquilla Actif 81 / 96 40% 1 14.08.2026 -
Luis Iberico Sporting Cristal Actif 115 / 107 40% 1 14.08.2026 -
Bryan Castrillón Independiente Medellin Actif 105 / 122 40% 1 14.08.2026 -
Fernando Camarda Central Espanol Actif 113 / 113 40% 1 13.08.2026 -
Gabriel Norambuena Union Espanola Actif 112 / 89 40% 1 13.08.2026 -
Marco Farfan Tigres Actif 95 / 99 40% 2 12.08.2026 -
Carlos Adrián Sánchez Pachuca Actif 128 / 101 40% 1 12.08.2026 -
Jhon Navia Junior Actif 96 / 115 40% 1 12.08.2026 -
Alexis Gutiérrez Club America Actif 118 / 140 40% 1 11.08.2026 -
Agustín Requena Progreso Actif 94 / 102 40% 1 11.08.2026 -
Nahuel Gómez Oriental Actif 86 / 86 40% 1 08.08.2026 -
Victor Cuadrado Universitario Popayan Actif 88 / 79 40% 1 07.08.2026 -
Jhojan Torres Santa Fe Actif 125 / 118 40% 1 07.08.2026 -
Ever Valencia Independiente Medellin Actif 130 / 103 40% 1 06.08.2026 -
Santiago Cartagena Deportivo Maldonado Actif 122 / 114 40% 1 05.08.2026 -
Álvaro Meléndez Real Cartagena Actif 120 / 111 40% 1 04.08.2026 -
Martín Marta Tacuarembo Actif 95 / 87 40% 1 03.08.2026 -
Rafael Sangiovani Metropolitanos Actif 122 / 111 40% 1 02.08.2026 -
Aldhy Valencia Cesar Vallejo Actif 94 / 86 40% 1 02.08.2026 -
Lucas Bruera Carabobo Actif 119 / 107 40% 1 02.08.2026 -